Regional Weather Roundup
Issued by NWS Goodland, KS

Current Version | Previous Version | Text Only | Print | Product List | Glossary On
Versions: 1 2 3 4 5 6 7 8 9 10 11 12 13 14 15 16 17 18 19 20 21 22 23 24 25 26 27 28 29 30 31 32 33 34 35 36 37 38 39 40 41 42 43 44 45 46 47 48 49 50
000
ASUS43 KGLD 021008
RWRGLD

GOODLAND FORECAST AREA HOURLY WEATHER ROUNDUP
NATIONAL WEATHER SERVICE GOODLAND KS
400 AM MDT WED SEP 02 2015

...OFFICIAL OBSERVATIONS...

CITY           SKY/WX    TMP DP  RH WIND       PRES   REMARKS
GOODLAND KS    PTCLDY    61  56  83 S6        29.97S
HILL CITY KS   CLEAR     75  57  53 SW8       29.91S
IMPERIAL NEB   CLEAR     63  56  78 SW3       29.93F
MCCOOK NEB     CLEAR     62  57  83 CALM      29.90S
AKRON CO       MOCLDY    64  49  57 W7        30.03S
BURLINGTON CO  PTCLDY    61  55  81 SW10      30.03R
LIMON CO       MOCLDY    59  50  72 NW5       30.09F
$$

...UNOFFICIAL OBSERVATIONS...

CITY           SKY/WX    TMP DP  RH WIND       PRES   REMARKS
COLBY KS       CLEAR     66  59  77 SW6       29.96S
GOVE KS          N/A     69  32  25 MISG        N/A
LENORA KS        N/A     71  32  23 MISG        N/A
NORTON KS      CLEAR     73  54  49 S10       29.89S
KIT CARSON CO    N/A     62  56  81 MISG        N/A
YUMA CO          N/A     60  52  75 W7          N/A
$$


USA.gov is the U.S. government's official web portal to all federal, state and local government web resources and services.